Date,TemperatureHighF,TemperatureAvgF,TemperatureLowF,DewpointHighF,DewpointAvgF,DewpointLowF,HumidityHigh,HumidityAvg,HumidityLow,PressureMaxIn,PressureMinIn,WindSpeedMaxMPH,WindSpeedAvgMPH,GustSpeedMaxMPH,PrecipitationSumIn
2013-1-1,22,15,8,12,6,1,79,68,60,30.24,30.17,11,2,11,0.00
2013-1-2,24,14,2,14,7,-2,85,75,62,30.27,30.16,16,6,16,0.00
2013-1-3,30,23,15,26,18,9,89,82,74,30.34,30.15,17,6,20,0.00
2013-1-4,31,18,8,24,13,3,85,79,71,30.35,30.27,22,9,23,0.00
2013-1-5,34,28,18,32,24,14,96,87,78,30.28,30.00,23,8,23,0.02
2013-1-6,34,26,15,32,20,12,91,81,73,30.36,29.98,27,9,28,0.00
2013-1-7,36,26,14,28,22,11,90,81,70,30.37,30.13,24,9,26,0.00
2013-1-8,43,34,26,34,28,21,85,80,68,30.18,30.07,24,8,26,0.00
2013-1-9,48,39,31,36,31,23,88,73,51,30.48,30.07,23,5,25,0.00
2013-1-10,49,36,28,49,33,24,100,88,71,30.47,29.77,23,6,24,0.32
2013-1-11,56,50,44,54,48,44,100,93,81,29.81,29.68,32,14,32,0.08
2013-1-12,51,43,28,48,39,26,95,85,62,29.93,29.74,22,7,23,0.09
2013-1-13,28,21,14,27,17,8,93,84,74,30.31,29.86,18,4,19,0.00
2013-1-14,27,18,13,16,11,8,84,76,61,30.46,30.31,13,2,13,0.01
2013-1-15,30,21,12,21,16,7,89,79,66,30.43,30.12,10,1,10,0.00
2013-1-16,36,28,16,29,22,13,91,80,65,30.12,29.93,27,7,27,0.01
2013-1-17,34,29,19,29,21,16,90,73,51,30.44,30.07,16,4,16,0.00
2013-1-18,42,31,19,31,24,15,87,75,62,30.45,30.02,33,14,35,0.00
2013-1-19,51,41,34,39,32,27,81,72,59,30.02,29.80,28,14,29,0.00
2013-1-20,37,21,16,28,10,5,79,62,45,30.32,30.00,33,7,33,0.00
2013-1-21,16,10,5,10,-2,-9,77,59,38,30.37,30.22,28,11,28,0.00
2013-1-22,14,9,2,1,-4,-8,71,56,38,30.45,30.35,17,6,18,0.00
2013-1-23,33,21,12,16,7,0,65,56,44,30.38,30.10,19,7,22,0.00
2013-1-24,24,17,7,7,2,-5,65,53,44,30.62,30.31,18,6,19,0.00
2013-1-25,34,26,19,21,15,4,85,64,45,30.33,30.01,22,8,23,0.00
2013-1-26,34,23,12,17,10,6,75,60,38,30.39,30.17,12,3,13,0.00
2013-1-27,42,31,21,42,27,14,100,85,67,30.35,29.90,32,13,32,0.23
2013-1-28,58,51,42,57,51,42,100,100,99,29.92,29.76,31,12,31,0.04
2013-1-29,62,58,50,60,56,50,100,97,90,29.78,29.35,34,15,34,0.27
2013-1-30,50,36,20,50,34,12,100,91,71,29.75,29.24,34,14,35,0.02
2013-1-31,22,15,5,19,7,-4,91,70,58,30.28,29.75,28,14,30,0.00
2013-2-1,20,12,3,17,3,-5,85,67,56,30.45,30.19,23,11,26,0.00
2013-2-2,28,21,14,23,16,8,92,81,74,30.20,30.02,19,7,19,0.00
2013-2-3,28,22,15,21,16,11,94,78,50,30.10,29.98,25,6,25,0.00
2013-2-4,39,29,22,29,23,17,87,76,61,30.00,29.78,20,7,20,0.00
2013-2-5,40,31,23,33,26,20,94,83,68,30.08,29.80,23,6,24,0.00
2013-2-6,42,34,25,33,28,21,92,79,63,30.21,30.07,18,5,18,0.00
2013-2-7,40,36,32,40,34,29,100,93,80,30.07,29.82,21,6,22,0.19
2013-2-8,33,28,25,32,24,21,96,84,78,30.38,29.96,17,4,17,0.00
2013-2-9,36,31,28,31,26,23,89,82,77,30.36,30.03,20,10,21,0.00
2013-2-10,49,42,34,49,39,28,100,92,71,30.05,29.52,36,18,37,0.42
2013-2-11,42,34,28,33,26,23,84,71,58,30.09,29.61,36,14,39,0.00
2013-2-12,35,29,23,28,25,21,93,86,70,30.13,29.92,12,3,12,0.00
2013-2-13,46,34,25,36,29,22,94,82,55,29.92,29.72,18,4,19,0.00
2013-2-14,41,36,32,34,30,26,93,80,66,29.99,29.71,27,8,27,0.00
2013-2-15,34,29,21,30,18,10,90,66,38,30.20,29.99,17,6,21,0.00
2013-2-16,28,21,14,13,9,5,75,62,44,30.21,30.13,18,5,18,0.00
2013-2-17,36,24,10,23,14,5,80,67,50,30.22,29.93,24,9,24,0.00
2013-2-18,54,40,26,47,34,20,100,78,64,29.93,29.46,41,20,45,0.10
2013-2-19,26,20,16,20,11,5,79,68,57,30.25,29.72,33,16,34,0.00
2013-2-20,25,17,7,14,7,-1,83,67,51,30.39,30.25,15,4,16,0.00
2013-2-21,28,22,14,23,17,10,90,81,73,30.35,30.05,14,3,14,0.00
2013-2-24,35,29,27,28,26,24,90,87,75,30.12,30.09,6,2,7,0.01
2013-2-25,45,34,26,34,29,23,92,82,63,30.11,29.75,17,3,17,0.01
2013-2-26,34,32,32,32,31,28,99,94,78,29.76,29.38,22,7,22,0.03
2013-2-27,32,31,30,32,30,29,100,98,94,29.75,29.50,19,7,20,0.00
2013-2-28,36,32,31,31,30,27,97,91,80,30.04,29.75,14,4,14,0.00
2013-3-1,31,28,24,27,23,20,90,83,77,30.17,30.02,15,6,16,0.00
2013-3-2,31,24,12,20,17,7,83,72,58,30.20,30.14,12,4,13,0.00
2013-3-3,31,20,10,18,12,5,89,72,43,30.18,30.08,11,2,11,0.00
2013-3-4,35,30,22,29,25,17,89,82,73,30.09,29.86,23,6,23,0.00
2013-3-5,33,31,27,32,29,26,100,95,85,29.99,29.77,26,7,29,0.00
2013-3-6,31,27,24,27,25,23,98,90,83,30.32,29.99,18,6,20,0.00
2013-3-7,35,29,24,27,24,21,90,82,65,30.41,30.32,10,2,10,0.00
2013-3-8,41,31,20,35,27,18,94,87,77,30.45,30.23,17,4,17,0.00
2013-3-9,45,39,33,39,34,30,89,83,72,30.23,29.77,25,12,25,0.00
2013-3-10,54,48,43,52,46,38,100,91,76,29.78,29.57,25,9,26,0.00
2013-3-11,48,36,31,48,35,26,99,94,84,29.89,29.58,27,13,28,0.00
2013-3-12,38,31,26,34,26,18,94,80,67,30.10,29.87,27,10,27,0.00
2013-3-13,36,28,23,22,18,15,82,67,45,30.36,30.10,22,9,26,0.00
2013-3-14,40,31,24,32,25,18,90,78,66,30.35,30.09,21,7,22,0.00
2013-3-15,54,41,29,46,36,27,95,85,67,30.09,29.63,13,3,13,0.00
2013-3-16,43,36,31,41,32,25,99,87,73,30.08,29.59,14,4,15,0.00
2013-3-17,38,33,29,29,26,23,82,75,67,30.14,29.87,13,3,13,0.00
2013-3-18,40,33,25,36,30,16,100,88,65,29.91,29.64,29,7,30,0.00
2013-3-19,40,29,20,21,16,10,74,58,34,30.14,29.89,36,11,36,0.00
2013-3-20,28,24,16,19,9,1,74,53,35,30.17,30.03,26,10,27,0.00
2013-3-21,36,24,0,14,9,0,77,55,32,30.10,29.99,14,2,14,0.00
2013-3-22,44,31,18,25,17,12,83,58,28,30.07,29.98,14,1,16,0.00
2013-3-23,50,38,31,26,24,21,76,57,34,30.07,29.87,13,3,13,0.00
2013-3-24,32,30,28,30,28,23,97,92,70,29.92,29.55,17,7,17,0.00
2013-3-25,36,30,26,28,26,22,96,84,69,30.10,29.67,18,6,19,0.00
2013-3-26,36,33,30,28,25,22,80,74,59,30.28,30.10,18,5,18,0.00
2013-3-27,41,33,24,30,25,20,87,74,50,30.35,30.27,16,3,21,0.00
2013-3-28,47,36,24,33,27,18,84,69,52,30.37,30.27,8,1,9,0.00
2013-3-29,57,43,33,40,33,26,86,69,40,30.29,30.19,11,2,11,0.00
2013-3-30,54,45,32,44,38,29,93,77,61,30.19,29.85,23,7,23,0.00
2013-3-31,59,49,40,47,40,28,99,73,42,29.89,29.74,26,8,26,0.00
2013-4-1,43,36,29,29,19,11,74,51,28,30.20,29.89,18,5,21,0.00
2013-4-2,46,34,23,20,15,9,76,48,23,30.31,30.20,18,3,18,0.00
2013-4-3,50,37,26,22,18,15,68,48,26,30.41,30.27,17,2,17,0.00
2013-4-4,59,42,26,25,20,15,78,46,21,30.27,29.98,13,2,13,0.00
2013-4-5,60,47,38,34,27,20,71,47,23,30.16,29.97,13,3,14,0.00
2013-4-6,71,55,38,47,34,24,73,46,27,30.05,29.62,41,17,42,0.00
2013-4-7,72,56,44,48,43,39,92,64,31,29.90,29.67,17,3,19,0.00
2013-4-8,73,63,52,58,54,40,93,76,55,29.85,29.62,32,11,33,0.00
2013-4-9,78,67,57,60,57,53,92,72,50,29.85,29.75,39,13,40,0.00
2013-4-10,67,53,43,63,51,42,99,93,74,29.86,29.63,23,8,26,0.00
2013-4-11,49,45,38,49,43,32,100,94,79,29.72,29.56,25,8,25,0.00
2013-4-12,41,39,36,36,34,30,89,83,76,29.91,29.61,29,12,30,0.00
2013-4-13,50,42,36,39,33,25,86,72,52,29.99,29.90,23,8,23,0.00
2013-4-14,72,57,41,54,46,38,93,69,44,29.93,29.59,31,12,33,0.00
2013-4-15,61,54,46,59,51,44,99,90,59,29.94,29.67,24,10,27,0.00
2013-4-16,52,46,41,45,42,38,97,85,64,30.17,29.86,16,4,16,0.00
2013-4-17,65,50,43,65,48,38,99,91,77,30.16,29.68,24,7,25,0.00
2013-4-18,70,57,39,67,55,34,100,95,81,29.70,29.42,33,13,36,0.00
2013-4-19,40,37,33,34,31,28,89,78,68,30.00,29.58,31,12,33,0.00
2013-4-20,49,38,29,33,28,24,87,69,40,30.37,30.00,12,2,13,0.00
2013-4-21,55,43,32,41,35,29,93,73,55,30.45,30.27,23,9,23,0.00
2013-4-22,66,52,37,47,40,33,88,65,37,30.27,29.99,22,8,22,0.00
2013-4-23,58,49,38,54,45,36,97,89,69,30.00,29.84,22,6,22,0.00
2013-4-24,48,40,36,37,34,28,96,78,52,30.18,29.92,21,5,21,0.00
2013-4-25,54,45,37,35,31,24,83,61,37,30.30,30.12,26,8,26,0.00
2013-4-26,63,50,38,48,41,32,88,71,54,30.33,30.24,25,9,25,0.00
2013-4-27,62,52,42,52,47,40,99,85,54,30.26,29.91,20,4,20,0.00
2013-4-28,60,55,50,57,54,49,100,96,79,29.92,29.81,9,2,9,0.00
2013-4-29,72,59,43,61,54,43,100,84,58,29.90,29.72,24,9,25,0.00
2013-4-30,82,68,56,63,58,53,94,72,38,29.91,29.75,26,11,28,0.00
2013-5-1,82,70,55,60,54,46,94,63,29,30.04,29.90,22,6,22,0.00
2013-5-2,76,65,48,65,57,46,95,78,53,30.08,30.01,22,4,24,0.00
2013-5-3,67,55,43,63,53,42,100,92,79,30.04,29.77,37,5,37,0.00
2013-5-4,62,58,53,59,56,52,98,93,77,29.97,29.80,21,6,21,0.00
2013-5-5,68,58,52,57,54,51,99,85,60,29.97,29.86,12,2,14,0.00
2013-5-6,72,62,53,56,52,48,94,72,44,29.95,29.88,14,3,16,0.00
2013-5-7,80,65,53,55,48,41,82,57,27,29.98,29.91,13,2,13,0.00
2013-5-8,80,67,53,56,50,38,87,57,26,29.98,29.91,9,1,9,0.00
2013-5-9,65,62,59,63,59,51,99,91,72,29.95,29.77,18,5,20,0.00
2013-5-10,62,55,49,61,54,48,100,95,85,29.94,29.77,14,2,16,0.00
2013-5-11,62,52,43,53,40,25,96,67,28,30.06,29.88,30,5,30,0.00
2013-5-12,56,47,36,32,29,22,77,52,28,30.15,30.06,23,4,23,0.00
2013-5-13,68,54,37,43,34,26,87,51,22,30.17,30.00,16,2,16,0.00
2013-5-14,90,71,52,59,52,40,67,53,33,30.00,29.66,24,11,26,0.00
2013-5-15,86,75,64,61,56,52,71,54,38,29.80,29.70,25,6,26,0.00
2013-5-16,83,73,63,61,54,47,75,54,30,29.89,29.76,21,3,21,0.00
2013-5-17,80,68,58,65,60,48,95,76,39,29.94,29.88,25,5,25,0.00
2013-5-18,81,71,62,65,62,58,98,76,47,29.98,29.86,18,5,18,0.00
2013-5-19,90,76,60,71,65,59,99,73,45,29.88,29.67,26,10,26,0.00
2013-5-20,90,76,63,67,61,52,96,64,29,29.81,29.66,33,13,33,0.00
2013-5-21,78,70,62,70,65,60,95,84,66,29.75,29.61,28,13,33,0.00
2013-5-22,72,66,59,65,60,55,98,83,60,29.76,29.58,23,8,24,0.00
2013-5-23,59,56,45,58,52,42,97,86,73,30.23,29.76,17,4,17,0.00
2013-5-24,69,53,39,44,38,31,87,60,27,30.38,30.23,13,2,13,0.00
2013-5-25,57,51,45,51,42,32,95,73,40,30.37,30.19,17,3,17,0.00
2013-5-26,63,55,49,60,53,48,96,92,85,30.24,29.98,23,8,23,0.00
2013-5-27,70,63,57,67,61,56,99,95,85,30.07,29.75,19,6,19,0.00
2013-5-28,78,70,63,72,66,61,100,89,78,29.83,29.72,32,12,32,0.00
2013-5-29,83,73,63,72,66,60,96,80,60,29.91,29.80,39,11,41,0.00
2013-5-30,82,74,63,71,66,60,99,79,60,29.87,29.75,37,14,38,0.00
2013-5-31,76,69,63,72,66,62,99,92,81,29.85,29.67,41,12,46,0.00
2013-6-1,72,66,61,68,63,58,97,91,81,29.77,29.60,40,13,40,0.00
2013-6-2,63,59,54,59,56,52,97,90,77,30.00,29.75,17,3,17,0.00
2013-6-3,68,58,50,52,49,44,94,72,47,30.09,29.99,14,1,15,0.00
2013-6-4,73,62,49,56,51,46,93,69,47,30.09,29.99,19,4,19,0.00
2013-6-5,80,68,57,60,55,51,90,66,38,30.00,29.81,14,1,14,0.00
2013-6-6,76,66,59,61,56,48,86,70,52,29.84,29.76,10,2,10,0.00
2013-6-7,76,64,54,58,52,48,83,67,49,29.87,29.81,10,2,11,0.00
2013-6-8,78,66,52,56,50,43,83,57,34,29.93,29.86,14,2,14,0.00
2013-6-9,82,70,61,65,58,51,96,70,36,29.93,29.73,27,7,28,0.00
2013-6-10,78,68,60,64,60,57,100,77,51,29.84,29.69,13,2,14,0.00
2013-6-11,86,74,59,72,64,57,96,73,43,29.90,29.76,22,4,22,0.00
2013-6-12,96,83,69,71,68,62,96,65,34,29.83,29.53,33,9,33,0.00
2013-6-13,82,74,63,70,59,51,89,61,36,29.95,29.58,25,4,25,0.00
2013-6-14,81,69,55,58,53,46,88,59,32,30.07,29.92,9,1,10,0.00
2013-6-15,80,71,66,69,61,52,98,72,48,30.02,29.84,23,5,27,0.00
2013-6-16,81,72,66,71,68,65,98,87,66,29.98,29.85,16,4,17,0.00
2013-6-17,86,75,65,72,64,51,100,72,31,29.91,29.82,11,1,12,0.00
2013-6-18,84,72,62,67,61,52,99,71,44,29.97,29.83,13,2,13,0.00
2013-6-19,86,72,56,64,56,49,85,60,31,30.04,29.96,10,1,11,0.00
2013-6-20,89,77,63,67,60,53,92,60,33,30.08,30.01,20,4,20,0.00
2013-6-21,91,77,69,70,66,62,97,73,40,30.10,29.92,22,7,24,0.00
2013-6-22,83,73,66,76,69,64,96,88,74,30.02,29.94,20,5,21,0.00
2013-6-23,83,73,65,73,68,64,97,86,69,30.01,29.88,25,6,25,0.00
2013-6-24,87,73,66,73,68,65,98,85,59,30.03,29.85,33,3,34,0.00
2013-6-25,86,74,66,75,71,65,99,90,67,29.91,29.79,31,7,34,0.00
2013-6-26,82,75,68,76,72,66,99,90,76,29.83,29.66,19,4,19,0.00
2013-6-27,87,78,71,77,71,65,100,80,52,29.79,29.69,18,3,18,0.00
2013-6-28,82,74,66,68,63,56,97,73,43,29.75,29.59,20,3,22,0.00
2013-6-29,75,67,63,68,63,59,95,86,70,29.69,29.56,19,2,19,0.00
2013-6-30,76,68,62,64,58,43,92,73,44,29.89,29.69,13,4,16,0.00
2013-7-1,77,68,61,60,53,43,81,59,42,29.96,29.88,16,4,16,0.00
2013-7-2,72,65,60,60,57,54,91,76,56,30.00,29.93,13,3,16,0.00
2013-7-3,77,66,60,63,58,48,94,76,38,30.03,29.96,7,0,9,0.00
2013-7-4,81,71,59,64,59,54,95,69,47,30.06,29.99,16,4,17,0.00
2013-7-5,81,72,61,70,64,58,100,76,51,30.04,29.97,13,3,14,0.00
2013-7-6,80,72,64,71,67,63,100,85,60,30.02,29.94,13,2,14,0.00
2013-7-7,86,76,65,74,68,63,96,79,58,29.99,29.91,15,3,15,0.00
2013-7-8,85,77,72,76,71,67,95,83,57,30.03,29.92,19,4,20,0.00
2013-7-9,89,80,75,76,74,71,95,83,61,29.96,29.84,14,2,15,0.00
2013-7-10,86,77,68,76,71,62,100,83,55,29.96,29.79,27,2,32,0.00
2013-7-11,82,71,59,64,60,55,93,72,46,30.04,29.96,6,0,7,0.00
2013-7-12,85,70,56,65,57,49,93,68,33,30.10,30.01,7,0,8,0.00
2013-7-13,85,72,58,68,63,57,99,77,52,30.09,30.02,13,0,13,0.00
2013-7-14,88,75,63,75,69,62,98,82,56,30.12,30.04,13,2,13,0.00
2013-7-15,89,78,70,79,73,69,99,87,62,30.20,30.11,10,1,10,0.00
2013-7-16,88,79,70,76,73,69,100,82,59,30.26,30.19,11,2,12,0.00
2013-7-17,91,81,69,77,73,68,98,79,54,30.28,30.14,7,0,7,0.00
2013-7-18,89,81,72,78,75,70,99,83,64,30.14,29.95,11,2,11,0.00
2013-7-19,90,84,78,76,75,72,91,75,59,29.80,29.77,14,4,15,0.00
2013-7-20,88,79,69,75,70,64,98,76,48,29.87,29.76,13,1,14,0.00
2013-7-21,78,72,64,74,70,64,100,94,83,29.90,29.80,10,2,10,0.00
2013-7-22,83,73,66,72,69,66,100,89,62,29.81,29.72,13,0,13,0.00
2013-7-23,82,72,63,71,65,58,100,80,56,29.89,29.71,16,2,16,0.00
2013-7-24,78,64,55,59,56,52,96,76,46,30.00,29.89,9,1,9,0.00
2013-7-25,81,74,63,63,59,55,88,63,45,30.08,30.01,6,0,7,0.00
2013-7-26,71,65,60,68,62,58,95,90,76,30.02,29.89,16,3,16,0.00
2013-7-27,68,64,54,53,49,46,81,59,49,29.93,29.90,17,4,17,0.00
2013-7-28,71,62,54,55,53,50,92,72,52,30.02,29.96,9,0,9,0.00
2013-7-29,77,64,50,60,55,49,100,76,44,30.13,30.02,10,0,10,0.00
2013-7-30,67,65,61,67,64,59,100,96,90,30.11,29.99,17,4,17,0.00
2013-7-31,75,69,63,72,68,62,100,95,78,30.00,29.93,9,0,12,0.00
2013-8-1,81,71,60,69,62,56,100,77,47,30.00,29.93,16,1,17,0.00
2013-8-2,76,71,69,71,68,67,97,89,77,29.90,29.85,14,3,16,0.00
2013-8-3,82,72,59,69,63,56,99,77,46,30.07,29.89,8,0,10,0.00
2013-8-4,78,67,54,63,58,53,99,77,49,30.14,30.05,6,0,7,0.00
2013-8-5,75,67,56,65,62,55,99,83,64,30.06,29.85,15,3,16,0.00
2013-8-6,84,73,66,75,69,64,100,90,68,29.88,29.78,12,2,12,0.00
2013-8-7,82,73,68,77,72,68,100,95,77,29.86,29.77,11,2,11,0.00
2013-8-8,81,72,65,72,66,59,99,83,68,29.93,29.85,9,2,9,0.00
2013-8-9,81,70,58,68,62,55,94,76,49,30.01,29.92,4,0,5,0.00
2013-8-10,83,71,60,66,61,56,98,72,46,30.08,30.00,12,0,12,0.00
2013-8-11,83,71,52,67,61,51,99,74,45,30.10,30.01,6,0,7,0.00
2013-8-12,81,71,60,72,66,58,98,86,66,30.03,29.84,10,1,11,0.00
2013-8-13,76,66,51,66,57,48,99,75,44,30.11,29.87,9,1,11,0.00
2013-8-14,76,61,47,58,51,45,99,75,39,30.18,30.10,6,0,7,0.00
2013-8-15,76,63,53,57,53,48,96,73,44,30.15,30.06,10,0,10,0.00
2013-8-16,81,67,57,61,56,53,91,70,40,30.13,30.08,10,0,11,0.00
2013-8-17,80,66,53,62,56,51,98,73,46,30.18,30.09,16,1,16,0.00
2013-8-18,84,69,56,65,59,54,94,74,43,30.14,30.05,10,1,10,0.00
2013-8-19,84,71,58,69,63,57,98,79,53,30.09,30.00,10,0,10,0.00
2013-8-20,83,72,60,71,65,58,98,82,57,30.08,30.01,10,1,10,0.00
2013-8-21,78,73,69,70,68,66,93,85,74,30.01,29.97,0,0,0,0.00
2013-8-22,85,72,68,73,68,63,98,88,60,30.07,29.97,18,1,18,0.00
2013-8-23,88,73,63,71,66,61,100,81,48,30.10,30.03,10,0,10,0.00
2013-8-24,84,71,59,70,64,58,99,81,54,30.19,30.09,10,2,10,0.00
2013-8-25,86,73,61,69,64,58,95,76,51,30.23,30.13,12,2,12,0.00
2013-8-26,88,76,64,75,70,62,99,83,60,30.16,29.99,9,1,9,0.00
2013-8-27,88,78,69,75,71,68,99,81,57,30.00,29.88,15,3,16,0.00
2013-8-28,92,79,67,77,70,64,93,75,52,29.94,29.87,16,2,16,0.00
2013-8-29,85,75,70,75,71,67,99,89,65,30.01,29.92,11,0,11,0.00
2013-8-30,93,79,66,78,71,60,100,79,55,29.92,29.74,12,2,12,0.00
2013-8-31,91,77,66,80,71,59,96,81,60,29.77,29.64,13,2,13,0.00
2013-9-1,85,74,69,75,71,64,100,89,64,29.78,29.70,10,1,11,0.00
2013-9-2,84,72,62,66,61,58,94,70,44,29.92,29.76,10,1,10,0.00
2013-9-3,78,64,53,62,57,52,100,79,48,30.05,29.92,9,0,9,0.00
2013-9-4,83,67,53,63,58,51,99,75,39,30.12,30.02,10,1,10,0.00
2013-9-5,86,72,56,70,62,55,98,74,42,30.15,30.08,6,0,7,0.00
2013-9-6,85,71,57,68,62,56,96,76,53,30.14,29.98,11,2,12,0.00
2013-9-7,87,73,61,70,64,60,98,77,47,30.00,29.86,19,2,19,0.00
2013-9-8,86,76,69,72,68,65,94,80,57,29.93,29.84,11,1,11,0.00
2013-9-9,94,79,68,75,71,67,100,79,48,29.88,29.81,15,3,16,0.00
2013-9-10,94,80,68,72,68,63,97,70,37,30.00,29.88,16,2,17,0.00
2013-9-11,93,80,67,71,66,57,96,68,31,30.05,29.95,18,2,18,0.00
2013-9-12,82,72,62,70,61,46,100,73,31,30.01,29.91,18,2,19,0.00
2013-9-13,72,60,46,53,47,42,94,64,37,30.12,30.01,11,2,11,0.00
2013-9-14,72,56,42,51,44,38,99,68,32,30.15,30.02,11,2,12,0.00
2013-9-15,72,60,49,62,53,44,96,78,47,30.08,29.94,18,2,19,0.00
2013-9-16,74,61,49,57,53,46,98,79,48,30.26,30.08,13,2,13,0.00
2013-9-17,76,60,47,57,52,46,99,77,47,30.26,30.05,14,3,15,0.00
2013-9-18,84,70,58,70,63,54,96,78,53,30.05,29.89,17,4,17,0.00
2013-9-19,92,79,70,71,69,66,97,74,44,29.91,29.75,22,6,22,0.00
2013-9-20,77,66,55,71,63,51,100,88,67,29.84,29.77,17,2,20,0.00
2013-9-21,71,58,48,55,49,45,97,74,42,29.90,29.81,13,1,14,0.00
2013-9-22,77,58,43,53,46,42,98,70,31,30.01,29.90,14,0,17,0.00
2013-9-23,76,58,44,50,46,40,98,69,29,30.04,29.94,14,2,14,0.00
2013-9-24,79,60,44,57,51,43,98,73,42,29.98,29.82,15,2,15,0.00
2013-9-25,84,66,52,60,54,49,92,66,35,29.87,29.81,10,1,11,0.00
2013-9-26,84,65,50,58,51,45,97,66,28,30.01,29.87,12,1,12,0.00
2013-9-27,83,65,49,55,48,44,94,62,25,30.11,29.99,15,2,16,0.00
2013-9-28,84,69,54,60,55,51,95,66,36,30.02,29.87,24,7,24,0.00
2013-9-29,74,63,50,52,47,42,85,59,33,30.00,29.94,6,1,6,0.00
2013-9-30,78,55,45,60,50,44,100,85,36,29.97,29.86,15,2,18,0.00
2013-10-2,83,74,67,68,66,62,99,77,52,29.99,29.92,15,4,16,0.00
2013-10-3,85,70,63,72,66,62,100,90,51,29.93,29.80,17,4,21,0.00
2013-10-4,88,73,64,70,66,62,99,79,43,29.93,29.84,13,3,15,0.00
2013-10-5,78,72,58,73,66,52,95,83,65,29.88,29.75,16,2,16,0.00
2013-10-6,60,52,45,55,45,36,97,79,46,29.80,29.72,23,4,24,0.00
2013-10-7,67,53,43,52,46,42,100,78,45,30.08,29.77,16,2,16,0.00
2013-10-8,77,60,46,50,45,42,93,63,29,30.17,30.07,13,2,13,0.00
2013-10-9,72,53,42,52,45,40,97,77,39,30.18,30.08,11,1,12,0.00
2013-10-10,76,53,47,53,47,44,93,84,44,30.11,29.99,5,0,5,0.00
2013-10-11,80,67,56,59,54,51,92,67,38,30.01,29.88,17,5,19,0.00
2013-10-12,74,62,48,63,54,40,97,79,56,30.17,29.91,12,3,12,0.00
2013-10-13,70,55,41,44,36,28,89,54,24,30.35,30.17,9,0,9,0.00
2013-10-14,67,52,37,48,38,30,97,64,27,30.35,30.05,15,2,15,0.00
2013-10-15,64,58,51,63,54,43,99,84,65,30.04,29.79,22,8,22,0.00
2013-10-16,54,49,42,46,42,40,92,79,65,29.95,29.88,19,3,20,0.00
2013-10-17,60,49,43,46,42,36,99,77,42,29.95,29.83,18,2,19,0.00
2013-10-18,55,45,38,43,39,36,97,79,52,29.98,29.86,16,3,18,0.00
2013-10-19,54,46,39,42,38,31,99,76,42,29.94,29.83,23,6,25,0.00
2013-10-20,69,52,35,44,39,33,94,65,35,29.88,29.73,31,10,32,0.00
2013-10-21,54,46,30,45,34,22,81,65,42,30.00,29.79,21,4,22,0.00
2013-10-22,45,36,27,41,33,22,98,88,73,30.00,29.80,18,3,19,0.00
2013-10-23,44,38,34,36,32,26,99,81,52,30.07,29.91,15,3,15,0.00
2013-10-24,41,36,31,35,27,21,93,69,47,30.33,30.05,15,4,17,0.00
2013-10-25,52,37,23,32,26,20,93,68,37,30.44,30.13,21,6,21,0.00
2013-10-26,56,44,36,38,30,24,74,59,33,30.14,29.91,25,8,25,0.00
2013-10-27,56,41,28,34,28,24,92,64,33,30.09,29.98,17,2,19,0.00
2013-10-28,64,46,30,40,31,24,91,61,26,30.26,30.05,11,2,13,0.00
2013-10-29,56,47,37,51,43,36,100,88,59,30.27,30.06,15,4,16,0.00
2013-10-30,64,58,51,64,58,51,100,100,96,30.06,29.74,28,9,33,0.00
2013-10-31,63,59,45,62,58,43,100,98,92,29.74,29.25,32,11,34,0.02
2013-11-1,52,46,40,47,43,39,99,89,69,29.76,29.49,19,6,20,0.00
2013-11-2,49,42,35,42,36,31,98,82,57,30.14,29.75,13,2,15,0.00
2013-11-3,52,41,29,40,34,27,96,78,53,30.28,30.12,17,5,17,0.00
2013-11-4,56,49,41,44,40,35,82,73,60,30.19,30.08,28,13,30,0.00
2013-11-5,56,52,50,53,49,44,100,88,78,30.24,29.93,26,10,28,0.00
2013-11-6,57,47,33,55,44,30,100,92,78,30.19,29.82,32,12,33,0.02
2013-11-7,49,36,28,38,30,26,94,81,48,30.31,30.18,25,4,25,0.00
2013-11-8,51,39,26,35,31,25,96,73,49,30.34,29.99,31,8,32,0.00
2013-11-9,62,49,40,42,36,32,81,64,37,30.15,29.93,32,11,33,0.00
2013-11-10,49,39,33,34,30,27,84,71,49,30.38,30.15,15,3,15,0.00
2013-11-11,54,40,26,41,33,18,95,78,57,30.47,30.08,18,7,18,0.00
2013-11-12,32,25,19,20,17,13,85,72,57,30.72,30.47,14,4,15,0.00
2013-11-13,39,28,16,24,19,13,89,71,51,30.65,30.23,26,10,26,0.00
2013-11-14,51,38,28,29,24,19,71,58,33,30.23,29.99,26,14,27,0.00
2013-11-15,49,42,37,39,33,27,92,70,59,30.00,29.91,23,10,23,0.00
2013-11-16,60,54,42,58,51,40,99,92,76,29.92,29.56,37,17,37,0.00
2013-11-17,70,58,42,65,53,38,100,85,68,29.83,29.19,51,18,53,0.00
2013-11-18,47,40,31,40,32,25,92,74,48,30.25,29.83,23,7,26,0.00
2013-11-19,43,33,24,31,27,21,89,78,58,30.34,30.22,11,2,12,0.00
2013-11-20,42,36,28,39,32,25,91,84,70,30.24,30.00,32,10,32,0.00
2013-11-21,48,46,42,47,44,38,100,94,86,30.16,30.06,14,5,15,0.00
2013-11-22,46,37,28,46,34,26,100,91,77,30.49,30.14,11,4,14,0.00
2013-11-23,28,22,15,26,14,4,92,70,53,30.72,30.46,18,5,19,0.00
2013-11-24,27,18,10,14,8,3,79,65,37,30.76,30.42,12,3,14,0.00
2013-11-25,31,28,22,25,19,12,83,69,60,30.42,30.13,24,11,24,0.00
2013-11-26,35,26,18,26,18,6,87,72,57,30.17,30.02,21,4,23,0.00
2013-11-27,27,18,12,10,6,3,75,59,40,30.29,30.16,17,4,17,0.00
2013-11-28,37,26,17,20,15,9,76,62,46,30.48,30.20,24,7,25,0.00
2013-11-29,38,26,13,22,17,8,85,70,47,30.61,30.36,15,4,17,0.00
2013-11-30,51,36,25,32,27,21,86,70,46,30.36,30.06,20,7,21,0.00
2013-12-1,50,37,27,36,30,24,96,77,49,30.09,29.92,6,1,7,0.00
2013-12-2,45,36,28,38,33,27,96,88,72,29.92,29.69,14,1,14,0.00
2013-12-3,49,48,45,49,48,45,100,100,100,29.67,29.61,15,8,15,0.00
2013-12-4,56,49,38,56,48,34,100,97,84,29.75,29.45,27,9,28,0.00
2013-12-5,38,25,21,34,17,10,89,73,63,30.26,29.74,22,8,23,0.00
2013-12-6,20,17,11,11,8,4,74,67,61,30.57,30.25,12,3,12,0.00
2013-12-7,23,14,6,6,3,1,78,64,41,30.70,30.53,11,2,11,0.00
2013-12-8,25,21,13,24,17,6,98,84,70,30.53,29.99,17,4,19,0.00
2013-12-9,24,18,9,22,11,-2,93,74,55,30.27,29.99,23,7,24,0.00
2013-12-10,26,14,0,14,5,-7,79,67,53,30.32,30.13,28,7,30,0.00
2013-12-11,23,15,2,16,7,-8,83,68,49,30.62,30.26,18,4,18,0.00
2013-12-12,31,14,-2,16,5,-9,75,66,50,30.61,30.23,22,8,23,0.00
2013-12-13,39,27,15,30,21,9,99,78,51,30.23,30.00,16,6,16,0.00
2013-12-14,32,29,21,32,28,18,100,96,86,30.03,29.84,18,4,21,0.00
2013-12-15,22,16,11,19,12,7,88,82,76,30.12,30.02,22,6,22,0.00
2013-12-16,22,18,14,21,15,10,95,88,81,30.11,30.01,12,2,15,0.00
2013-12-17,29,23,18,28,20,11,98,87,64,30.18,30.05,16,6,17,0.07
2013-12-18,37,24,6,32,17,1,85,74,62,30.22,29.87,36,12,37,0.08
2013-12-19,47,40,36,45,37,32,98,91,85,29.90,29.72,26,10,28,0.00
2013-12-20,53,43,30,53,43,30,100,99,95,29.81,29.63,25,6,25,0.00
2013-12-21,33,31,29,33,31,29,100,100,100,29.82,29.50,12,1,13,0.00
2013-12-22,33,30,23,33,29,19,100,96,86,30.18,29.53,14,5,20,0.00
2013-12-23,23,14,4,20,8,-6,89,78,61,30.53,30.18,21,10,22,0.00
2013-12-24,20,10,1,12,3,-6,75,70,63,30.61,30.36,24,8,24,0.00
2013-12-25,29,25,20,27,21,11,92,82,67,30.36,30.17,24,11,24,0.00
2013-12-26,35,26,15,28,21,12,92,81,69,30.34,30.19,19,7,23,0.00
2013-12-27,45,39,34,35,32,30,86,77,63,30.25,30.15,22,9,23,0.00
2013-12-28,51,39,32,38,32,28,87,76,58,30.15,29.94,22,10,24,0.00
2013-12-29,28,20,9,27,17,4,96,85,76,30.24,29.93,20,9,21,0.00
2013-12-30,18,10,2,10,2,-4,78,70,55,30.37,30.21,15,4,15,0.00
2013-12-31,28,20,12,20,12,7,84,72,61,30.40,30.20,13,4,13,0.00
2014-1-1,27,22,17,21,18,14,90,84,76,30.16,30.09,14,7,15,0.00
2014-1-2,17,12,2,14,7,-4,88,80,73,30.45,30.07,12,5,14,0.00